Zurück zum Katalog

STARLINK-38281

AktivKommunikationSSO
NORAD 100322·PAYLOAD·🇺🇸 United States

Gestartet Aug 12, 2026 von Vandenberg Space Force Base

Loading…

Nächste Überflüge (nächste 24 Stunden)

TLE

AktuellSource: Space-Track

Epoche: Sep 14, 2026, 15:03 UTC

1 A0322U 26184X   26257.62762961  .00014840  00000-0  41204-3 0  9990
2 A0322  97.2838 122.8786 0002010 106.8260 253.3205 15.36989379  6462

Verfolge STARLINK-38281 in Echtzeit mit AllMySat

Download on the App Store